Location: York
(53.9600°N, 1.0873°W)
Time: 08:40:03
(UTC+00:00)

ISS - Visible Passes

Search period start: 25 January 2021 00:00
Search period end: 04 February 2021 00:00
Orbit: 418 x 421 km, 51.6° (Epoch: 25 January)

Date Brightness Start Highest point End Pass type
(mag) Time Alt. Az. Time Alt. Az. Time Alt. Az.
25 Jan -3.3 18:33:11 10° WSW 18:36:29 50° SSE 18:37:00 45° SE visible
25 Jan -0.3 20:09:46 10° W 20:09:59 11° W 20:09:59 11° W visible
26 Jan -3.0 17:45:57 10° WSW 17:49:11 43° SSE 17:51:35 16° E visible
26 Jan -2.1 19:22:26 10° W 19:24:33 34° WSW 19:24:33 34° WSW visible
27 Jan -3.5 18:35:06 10° WSW 18:38:26 59° S 18:39:07 47° SE visible
27 Jan -0.3 20:11:50 10° W 20:12:05 12° W 20:12:05 12° W visible
28 Jan -3.3 17:47:47 10° WSW 17:51:06 56° S 17:53:41 15° E visible
28 Jan -2.1 19:24:26 10° W 19:26:40 33° WSW 19:26:40 33° WSW visible
29 Jan -3.3 18:37:03 10° W 18:40:22 53° S 18:41:15 39° SE visible
29 Jan -0.3 20:13:59 10° W 20:14:13 11° W 20:14:13 11° W visible
30 Jan -3.3 17:49:40 10° W 17:53:01 58° S 17:55:52 13° ESE visible
30 Jan -1.9 19:26:29 10° W 19:28:51 28° SW 19:28:51 28° SW visible
31 Jan -2.6 18:39:01 10° W 18:42:12 38° SSW 18:43:31 26° SSE visible
01 Feb -2.9 17:51:35 10° W 17:54:52 46° SSW 17:58:07 10° ESE visible
01 Feb -1.4 19:28:45 10° WSW 19:31:09 18° SSW 19:31:15 18° SSW visible
02 Feb -1.7 18:41:06 10° W 18:43:53 24° SSW 18:46:06 13° SSE visible
03 Feb -2.0 17:53:32 10° W 17:56:35 31° SSW 17:59:35 10° SE visible
